Location: *
(33.8649°S, 62.1526°E)
Time: 15:20:28
(UTC+00:00)

ISS - Visible Passes

Search period start: 30 September 2022 00:00
Search period end: 10 October 2022 00:00
Orbit: 414 x 417 km, 51.6° (Epoch: 30 September)

Date Brightness Start Highest point End Pass type
(mag) Time Alt. Az. Time Alt. Az. Time Alt. Az.
07 Oct -0.8 00:37:54 10° S 00:39:42 14° SSE 00:41:29 10° ESE visible
09 Oct -1.8 00:35:41 10° SSW 00:38:44 30° SE 00:41:45 10° E visible
09 Oct -1.0 23:47:04 10° SSW 23:49:33 19° SSE 23:52:02 10° E visible
